Regional Weather Roundup
Issued by NWS Northern Indiana

Home | Current Version | Previous Version | Graphics & Text | Print | Product List | Glossary On
Versions: 1 2 3 4 5 6 7 8 9 10 11 12 13 14 15 16 17 18 19 20 21 22 23 24 25 26 27 28 29 30 31 32 33 34 35 36 37 38 39 40 41 42 43 44 45 46 47 48 49 50
000
ASUS43 KIWX 111610
RWRIWX

KIWX WEATHER ROUNDUP
NATIONAL WEATHER SERVICE NORTHERN INDIANA
1100 AM EST THU FEB 11 2016

NOTE: "FAIR" INDICATES FEW OR NO CLOUDS BELOW 12,000 FEET WITH NO
SIGNIFICANT WEATHER AND/OR OBSTRUCTIONS TO VISIBILITY.

* THESE STATIONS ARE NOT UNDER NWS QUALITY CONTROL. THEY ALSO MAY NOT
  REPORT WEATHER SUCH AS PRECIPITATION OR FOG.

INZ001>027-111700-
NORTHERN INDIANA

CITY           SKY/WX    TMP DP  RH WIND       PRES   REMARKS
GARY*          MOSUNNY   18   5  57 NW10      30.32  WCI   6
VALPARAISO     LGT SNOW  16   8  71 W12       30.29R WCI   3
MICHIGAN CITY* FLURRIES  19  12  73 NW6       30.28R WCI  11
LAPORTE*       LGT SNOW  20  14  79 W12       30.28R WCI   8
KNOX*          MOSUNNY   18   9  68 W10       30.29R WCI   6
SOUTH BEND     SNOW      17  12  80 W8        30.26R VSB 1/2 WCI   7
ELKHART*       CLOUDY    18  10  73 W7        30.25S WCI   8
GOSHEN         CLOUDY    17  11  77 S3        30.25R
MONTICELLO*    SUNNY     18   4  55 NW13      30.30R WCI   5
LOGANSPORT*    SUNNY     19   5  53 NW6       30.30R WCI  11
ROCHESTER*     MOSUNNY   19   9  63 W7        30.28R WCI  10
WARSAW*        CLOUDY    19  12  73 W6        30.26S WCI  11
ANGOLA*        PTSUNNY   16   7  67 NW6       30.22R WCI   7
FORT WAYNE     PTSUNNY   24  11  57 W7        30.27R WCI  16
HUNTINGTON*    PTSUNNY   16   6  63 NW5       30.27S WCI   9
PERU/GRISSOM   SUNNY     18   9  68 NW9       30.26S WCI   6
MARION*        SUNNY     14   1  56 NW7       30.29R WCI   4

$$
INZ028>050-111700-
CENTRAL INDIANA

CITY           SKY/WX    TMP DP  RH WIND       PRES   REMARKS
LAFAYETTE      SUNNY     19   6  57 N7        30.31S WCI  10
KOKOMO*        SUNNY     18   7  62 NW9       30.28R WCI   6
MUNCIE*        CLOUDY    19   8  62 NW10      30.27R WCI   7
INDIANAPOLIS   MOSUNNY   20   5  52 NW7       30.29R WCI  11

$$
MIZ043>046-050>051-056>058-064>065-071>073-077>080-111700-
SOUTHWEST LOWER MICHIGAN

CITY           SKY/WX    TMP DP  RH WIND       PRES   REMARKS
BATTLE CREEK   PTSUNNY   18   6  59 VRB6      30.22R WCI  10
BENTON HARBOR  FLURRIES  20  10  65 NW10      30.25S WCI   9
COLDWATER*     CLOUDY    18   6  59 W5        30.22R WCI  11
HILLSDALE*     CLOUDY    17   2  50 NW13G18   30.18R WCI   4
HOLLAND        PTSUNNY   20   8  60 VRB6      30.24R WCI  12
GRAND RAPIDS   PTSUNNY   19   3  49 NW9       30.21R WCI   8
KALAMAZOO      CLOUDY    17   7  64 NW6       30.23R WCI   9
STURGIS*       CLOUDY    16  10  77 SW6       30.22S WCI   7
THREE RIVERS*  CLOUDY    19  11  71 NW3       30.24S

$$
OHZ001>008-015>018-024>025-111700-
NORTHWEST OHIO

CITY           SKY/WX    TMP DP  RH WIND       PRES   REMARKS
DEFIANCE       CLOUDY    20   7  57 NW10      30.26R WCI   9
FINDLAY        CLOUDY    18   4  54 W10       30.23R WCI   6
TOLEDO EXPRESS PTSUNNY   18   3  52 NW15      30.23R WCI   4
TOLEDO METCALF MOSUNNY   18   2  49 NW13G21   30.24R WCI   5
LIMA           PTSUNNY   17   8  67 NW10      30.23R WCI   5

$$
AND FOR LAKE MICHIGAN COASTAL AND OPEN LAKE BUOY OBSERVATIONS

STATION/POSITION TEMP    WIND        PRES    VSBY  WAVE
                 AIR SEA DIR/SP/G                  HT/PER
                 (F)     (DEG/KT/KT) (MB)    (MI)  (FT/S)
CALUMET HARBOR    13     300/  5/  9 1025.6R
MICHIGAN CITY     19     300/ 12/ 15   N/A

$$
&&



USA.gov is the U.S. government's official web portal to all federal, state and local government web resources and services.